DW6949 Weather Reports


time (UTC)temp
F
wind
direction
speed
knots
gust
knots
rain 1hr
in
rain 24hr
in
rain mn
in
humidity
%
barometer
mb
20260504214551 78 116 3.5 12.2 0.00 0.00 0.00 65 1012.8
20260504213100 79 123 6.1 12.2 0.00 0.00 0.00 63 1012.8
20260504211549 80 116 4.3 11.3 0.00 0.00 0.00 62 1013.1
20260504210046 81 87 4.3 9.6 0.00 0.00 0.00 59 1013.0
20260504204559 80 113 4.3 8.7 0.00 0.00 0.00 61 1013.4
20260504203052 80 82 4.3 10.4 0.00 0.00 0.00 60 1013.3
20260504201546 80 79 1.7 8.7 0.00 0.00 0.00 59 1013.6
20260504200046 81 100 3.5 11.3 0.00 0.00 0.00 58 1013.8
20260504194551 81 113 4.3 12.2 0.00 0.00 0.00 57 1014.1
20260504193048 81 128 4.3 10.4 0.00 0.00 0.00 57 1014.2
20260504191547 81 124 3.5 8.7 0.00 0.00 0.00 59 1014.4
20260504190050 81 134 0.9 8.7 0.00 0.00 0.00 59 1014.7
20260504184547 81 113 5.2 11.3 0.00 0.00 0.00 58 1014.8
20260504183045 79 84 3.5 12.2 0.00 0.00 0.00 58 1015.0
20260504181550 79 129 4.3 12.2 0.00 0.00 0.00 58 1014.9
20260504180052 80 126 2.6 12.2 0.00 0.00 0.00 60 1015.2
20260504174550 80 70 3.5 9.6 0.00 0.00 0.00 59 1015.5
20260504173046 78 103 2.6 12.2 0.00 0.00 0.00 62 1015.7
20260504171554 78 99 2.6 8.7 0.00 0.00 0.00 61 1015.9
20260504081553 60 0 0.0 1.7 0.00 0.00 0.00 77 1017.3
20260504080112 60 127 0.0 0.9 0.00 0.00 0.00 79 1017.5
20260504044553 64 125 0.9 0.9 0.00 0.00 0.00 69 1019.6
20260504043052 64 124 0.0 2.6 0.00 0.00 0.00 68 1019.7
20260504041549 65 0 0.0 2.6 0.00 0.00 0.00 66 1019.8
20260504040113 66 110 0.9 6.1 0.00 0.00 0.00 65 1019.7
20260504034556 66 120 1.7 3.5 0.00 0.00 0.00 65 1019.5
20260504033049 66 122 0.9 2.6 0.00 0.00 0.00 64 1019.7
20260504031551 67 121 0.9 4.3 0.00 0.00 0.00 63 1019.5
20260504030051 67 122 0.9 4.3 0.00 0.00 0.00 62 1019.4
20260504024548 67 124 1.7 5.2 0.00 0.00 0.00 60 1019.1
20260504023059 68 120 1.7 6.1 0.00 0.00 0.00 58 1019.2
20260504021551 69 111 1.7 6.1 0.00 0.00 0.00 57 1019.1
20260504020048 70 121 1.7 5.2 0.00 0.00 0.00 55 1019.2
20260504014557 70 119 1.7 7.0 0.00 0.00 0.00 53 1019.0
20260504013058 71 129 2.6 9.6 0.00 0.00 0.00 52 1019.0
20260504011548 71 98 2.6 7.8 0.00 0.00 0.00 51 1019.0
20260504010054 72 96 3.5 7.0 0.00 0.00 0.00 50 1018.9
20260504004552 73 104 1.7 7.0 0.00 0.00 0.00 49 1018.9
20260504003055 74 110 4.3 8.7 0.00 0.00 0.00 47 1019.1
20260504001602 74 94 2.6 9.6 0.00 0.00 0.00 46 1018.9
20260504000108 76 113 2.6 8.7 0.00 0.00 0.00 44 1018.9
20260503234552 77 129 6.1 10.4 0.00 0.00 0.00 44 1019.0
20260503233048 78 106 3.5 7.8 0.00 0.00 0.00 42 1018.9
20260503231550 79 137 0.0 6.1 0.00 0.00 0.00 36 1019.1
20260503230050 78 118 3.5 7.0 0.00 0.00 0.00 36 1019.0
20260503224547 79 118 0.9 8.7 0.00 0.00 0.00 35 1019.1
20260503223050 80 109 1.7 6.1 0.00 0.00 0.00 35 1019.3
20260503221553 80 113 2.6 7.8 0.00 0.00 0.00 34 1019.6
20260503220052 80 112 3.5 7.8 0.00 0.00 0.00 33 1019.8